Date,TemperatureHighF,TemperatureAvgF,TemperatureLowF,DewpointHighF,DewpointAvgF,DewpointLowF,HumidityHigh,HumidityAvg,HumidityLow,PressureMaxIn,PressureMinIn,WindSpeedMaxMPH,WindSpeedAvgMPH,GustSpeedMaxMPH,PrecipitationSumIn
2013-3-1,65,49,37,28,18,12,51,30,18,30.41,30.26,4,0,0,0.00
2013-3-2,65,54,37,30,21,17,52,30,16,30.32,30.10,1,0,0,0.00
2013-3-3,56,49,40,35,26,19,74,42,27,30.10,29.90,10,1,0,0.00
2013-3-4,59,46,35,41,34,31,91,66,36,30.08,29.91,3,0,0,0.00
2013-3-5,55,47,39,43,37,33,97,72,47,30.07,29.90,14,4,0,0.01
2013-3-6,47,39,34,38,36,34,99,90,69,30.03,29.93,9,3,0,0.03
2013-3-7,37,35,33,36,35,32,99,98,95,29.96,29.84,7,2,0,0.62
2013-3-8,33,32,29,32,31,29,99,98,94,30.02,29.74,6,2,0,0.70
2013-3-9,45,36,31,36,32,28,99,84,53,30.28,30.02,2,0,0,0.00
2013-3-10,55,44,32,28,20,11,85,42,22,30.35,30.24,2,0,0,0.00
2013-3-12,71,56,36,34,23,16,56,31,16,30.15,30.07,5,0,0,0.00
2013-3-13,75,60,40,36,28,24,53,32,16,30.17,30.09,2,0,0,0.00
2013-3-14,76,63,44,40,31,26,53,34,16,30.12,30.03,6,1,0,0.00
2013-3-15,71,61,49,38,30,12,51,31,17,30.04,29.87,6,1,0,0.00
2013-3-16,71,58,44,29,24,8,42,28,17,29.89,29.81,10,1,0,0.00
2013-3-17,69,53,41,42,26,10,66,39,10,29.93,29.85,5,0,0,0.00
2013-3-18,66,53,39,35,24,14,72,36,20,30.00,29.90,3,0,0,0.00
2013-3-19,67,54,44,38,30,23,55,40,23,30.03,29.96,3,0,0,0.00
2013-3-20,60,52,44,43,37,33,71,57,44,30.02,29.91,5,1,0,0.00
2013-3-21,65,51,40,43,36,28,84,60,25,29.91,29.76,7,0,0,0.00
2013-3-22,64,47,35,40,23,2,88,47,11,29.92,29.75,2,0,0,0.00
2013-3-23,65,47,31,33,22,8,70,40,11,30.03,29.90,2,0,0,0.00
2013-3-24,66,50,36,27,21,12,60,35,17,30.01,29.91,1,0,0,0.00
2013-3-25,65,54,39,40,29,22,65,40,23,29.97,29.89,5,1,0,0.00
2013-3-26,61,53,47,40,31,21,77,44,24,29.91,29.82,8,1,0,0.00
2013-3-27,57,49,39,44,36,29,88,62,45,29.98,29.83,7,1,0,0.00
2013-3-28,61,51,40,45,38,34,85,64,38,30.04,29.95,9,1,0,0.00
2013-3-29,66,55,39,46,37,33,84,55,31,30.09,30.02,5,1,0,0.00
2013-3-30,64,55,45,42,35,21,72,48,29,30.04,29.95,9,1,0,0.00
2013-3-31,53,47,42,44,38,23,94,72,38,30.01,29.95,14,3,0,0.00